DECAYED

STARLINK-1861, 47148 (Decayed)

Orbit data source: Space-Track

STARLINK-1861, 47148 was a payload satellite owned by SpaceX/Seattle (US) in LEO that was launched on Wed, 25 Nov 2020 UTC via an FALCON 9 launch vehicle from the Air Force Eastern Test Range (AFETR). Payload-class satellites include a variety of spacecraft equipped with specific instruments for various scientific and technological missions. These include communications satellites like Starlink; space stations such as the ISS; scientific satellites like the Hubble; Earth observation satellites from companies like Planet Labs, Umbra, and HawkEye 360; GPS; miniature CubeSats for education and research; and military/defense satellites.

Not visible in the next 10 days
Identifier
47148, 2020-088AC
Orbit
Decayed
Country
Flag of USUS
Related business
Manufacturer
SpaceX/Seattle
Mission
Decayed Commercial Communications
Bus & Motor
STARLINK, Unknown motor
Mass
260 kg wet, ~248 kg dry
Launch date (UTC)
2020-11-25 (6 years ago)
Launch vehicle
FALCON 9
Launch site
Air Force Eastern Test Range (AFETR)
Object type
Payload
Rocket body
Debris
Shape & HBR
Box + 1 Pan, 10.1 m
Radar Cross Section
13.562 m², Large (>1 m²)

Expand to show TLE details & history
Last TLE update: 11 months ago

TLE from 11 months ago
0 STARLINK-1861
1 47148U 20088AC  25206.00912153  .15473786  12492-4  50079-3 0  9995
2 47148  53.0197 181.5815 0005383 272.1552 205.1739 16.44543730258631
Epoch: 2025-07-25T00:13Z
TLE epoch observation values (Epoch: 2025-07-25T00:13:08.100Z)
Latitude
45.37091°
Longitude
6.00512°
Altitude
161.642 km
Speed
7.813 km/s
True Right ascension
20h 49m 01s
True Declination
45° 10' 60"
Sunlit
Object was in full shadow at epoch
Visualization orbit readout
Latitude
Unknown
Longitude
Unknown
Altitude
Unknown
Speed
Unknown
Apparent Right ascension
Unknown
Apparent Declination
Unknown
Sunlit
N/A
Visualization observer readout
Local Sidereal Time
21:23:44
Azimuth
Unknown
Elevation
Unknown
Doppler factor
Unknown
Orbital elements
Apogee altitude
157.552 km
Perigee altitude
150.52 km
Semi-major axis
6,532.173 km
Eccentricity
0.00054
Inclination
53.0197°
RAAN
181.5815°
Arg. of periapsis
272.1552°
True anomaly
205.14768°
Mean anomaly
205.1739°
Eccentric anomaly
205.16079°
Mean motion
4.11109 °/min
Orbital period
87.57 mins
BSTAR
0.00050079
Loading maneuver chart data...
Computing Atmospheric mass density...

Documentation

Showing up to 5 results
|